EW4694 Weather Reports


Display with metric or nautical units.
time (UTC)temp
F
wind
direction
speed
MPH
gust
MPH
rain 1hr
in
rain 24hr
in
rain mn
in
humidity
%
barometer
mb
20260509171512 63 275 0.0 0.0 0.00 0.00 0.00 60 1010.2
20260509170008 63 274 0.0 0.0 0.00 0.00 0.00 61 1010.4
20260509164547 62 286 0.0 1.0 0.00 0.00 0.00 63 1010.3
20260509163054 61 126 0.0 0.0 0.00 0.00 0.00 66 1010.4
20260509161521 61 79 0.0 0.0 0.00 0.00 0.00 65 1010.2
20260509160016 60 136 0.0 0.0 0.00 0.00 0.00 66 1010.4
20260509154554 60 142 0.0 0.0 0.00 0.00 0.00 66 1010.4
20260509153052 60 121 0.0 0.0 0.00 0.00 0.00 65 1010.4
20260509151528 60 138 0.0 0.0 0.00 0.00 0.00 63 1010.7
20260509150024 59 180 0.0 0.0 0.00 0.00 0.00 64 1011.0
20260509144503 59 209 0.0 0.0 0.00 0.00 0.00 62 1010.9
20260509143109 59 180 0.0 0.0 0.00 0.00 0.00 63 1010.9
20260509141537 58 139 0.0 0.0 0.00 0.00 0.00 59 1010.9
20260509140032 57 137 0.0 0.0 0.00 0.00 0.00 56 1010.9
20260509134511 55 181 0.0 0.0 0.00 0.00 0.00 38 1011.1
20260509133007 54 181 0.0 0.0 0.00 0.00 0.00 22 1011.2
20260509131545 54 181 0.0 0.0 0.00 0.00 0.00 10 1011.5
20260509130044 53 150 0.0 0.0 0.00 0.00 0.00 1 1011.5
20260509124522 52 150 0.0 0.0 0.00 0.00 0.00 1 1011.6
20260509123016 51 150 0.0 0.0 0.00 0.00 0.00 1 1011.5
20260509121512 51 151 0.0 0.0 0.00 0.00 0.00 1 1011.6
20260509120014 50 219 0.0 0.0 0.00 0.00 0.00 1 1011.5
20260509114503 50 198 0.0 0.0 0.00 0.00 0.00 1 1011.5
20260509113100 50 207 0.0 0.0 0.00 0.00 0.00 1 1011.4
20260509111557 0 0.0 0.0 0.00 0.00 0.00 1011.4
20260509110057 0 0.0 0.0 0.00 0.00 0.00 1011.3
20260509104548 0 0.0 0.0 0.00 0.00 0.00 1011.1
20260509103043 0 0.0 0.0 0.00 0.00 0.00 1011.1
20260509101542 0 0.0 0.0 0.00 0.00 0.00 1011.1
20260509100039 0 0.0 0.0 0.00 0.00 0.00 1011.2
20260509094536 0 0.0 0.0 0.00 0.00 0.00 1011.3
20260509093029 50 293 0.0 0.0 0.00 0.00 0.00 1 1011.5
20260509091549 50 293 0.0 0.0 0.00 0.00 0.00 1 1011.7
20260509090041 50 293 0.0 0.0 0.00 0.00 0.00 1 1011.7
20260509084540 50 293 0.0 0.0 0.00 0.00 0.00 1 1011.7
20260509083033 50 293 0.0 0.0 0.00 0.00 0.00 1 1011.5
20260509081518 50 293 0.0 0.0 0.00 0.00 0.00 1 1011.8
20260509080022 50 293 0.0 0.0 0.00 0.00 0.00 1 1011.7
20260509074508 50 293 0.0 0.0 0.00 0.00 0.00 5 1011.4
20260509073006 50 293 0.0 0.0 0.00 0.00 0.00 8 1011.2
20260509071600 50 293 0.0 0.0 0.00 0.00 0.00 11 1011.1
20260509070100 51 293 0.0 0.0 0.00 0.00 0.00 16 1011.1
20260509064557 51 293 0.0 0.0 0.00 0.00 0.00 18 1011.1
20260509063053 51 293 0.0 0.0 0.00 0.00 0.00 26 1011.3
20260509061539 51 293 0.0 0.0 0.00 0.00 0.00 30 1011.2
20260509060033 51 293 0.0 0.0 0.00 0.00 0.00 31 1011.2
20260509054526 51 293 0.0 0.0 0.00 0.00 0.00 32 1011.2
20260509053014 51 293 0.0 0.0 0.00 0.00 0.00 34 1011.3
20260509051602 51 293 0.0 0.0 0.00 0.00 0.00 32 1011.5
20260509050053 51 293 0.0 0.0 0.00 0.00 0.00 37 1011.5
20260509044536 51 293 0.0 0.0 0.00 0.00 0.00 38 1011.7
20260509043042 51 293 0.0 0.0 0.00 0.00 0.00 34 1011.9
20260509041513 52 293 0.0 0.0 0.00 0.00 0.00 39 1011.9
20260509040011 52 293 0.0 0.0 0.00 0.00 0.00 40 1012.1
20260509034552 52 293 0.0 0.0 0.00 0.00 0.00 40 1012.1
20260509033047 52 293 0.0 0.0 0.00 0.00 0.00 44 1012.3
20260509031525 52 293 0.0 0.0 0.00 0.00 0.00 43 1012.3
20260509030027 52 293 0.0 0.0 0.00 0.00 0.00 44 1012.3
20260509024559 53 293 0.0 0.0 0.00 0.00 0.00 49 1012.4
20260509023056 53 293 0.0 0.0 0.00 0.00 0.00 51 1012.4
20260509021534 54 293 0.0 0.0 0.00 0.00 0.00 54 1012.4
20260509020030 54 293 0.0 0.0 0.00 0.00 0.00 56 1012.4
20260509014509 54 293 0.0 0.0 0.00 0.00 0.00 60 1012.1
20260509013013 54 293 0.0 0.0 0.00 0.00 0.00 54 1012.1
20260509011543 55 293 0.0 0.0 0.00 0.00 0.00 62 1012.1
20260509010043 56 293 0.0 0.0 0.00 0.00 0.00 66 1012.0
20260509004542 58 293 0.0 0.0 0.00 0.00 0.00 65 1012.0
20260509003032 59 293 0.0 0.0 0.00 0.00 0.00 63 1011.9
20260509001507 62 293 0.0 0.0 0.00 0.00 0.00 55 1011.7
20260509000006 64 293 0.0 0.0 0.00 0.00 0.00 47 1011.8
20260508234603 65 293 0.0 0.0 0.00 0.00 0.00 45 1011.9
20260508233040 65 223 0.0 0.0 0.00 0.00 0.00 46 1011.8
20260508231536 65 222 0.0 0.0 0.00 0.00 0.00 45 1011.7
20260508230035 65 277 0.0 0.0 0.00 0.00 0.00 46 1011.7
20260508224515 65 283 0.0 0.0 0.00 0.00 0.00 46 1011.8
20260508223059 66 300 0.0 0.0 0.00 0.00 0.00 44 1011.9
20260508221558 67 315 0.0 0.0 0.00 0.00 0.00 43 1011.8
20260508220050 68 277 0.0 0.0 0.00 0.00 0.00 44 1011.8
20260508214541 67 77 0.0 0.0 0.00 0.00 0.00 44 1011.7
20260508213032 67 179 0.0 0.0 0.00 0.00 0.00 48 1011.9
20260508211532 66 290 0.0 1.0 0.00 0.00 0.00 43 1012.1
20260508210023 66 286 0.0 1.0 0.00 0.00 0.00 42 1012.1
20260508204518 66 275 0.0 0.0 0.00 0.00 0.00 46 1012.3
20260508203015 66 286 0.0 0.0 0.00 0.00 0.00 44 1012.8
20260508201510 66 292 0.0 10.0 0.00 0.00 0.00 45 1013.0
20260508200051 66 289 0.0 2.0 0.00 0.00 0.00 44 1013.0
20260508194547 66 274 0.0 0.0 0.00 0.00 0.00 46 1013.3
20260508193025 65 279 0.0 0.0 0.00 0.00 0.00 44 1013.8
20260508191519 65 302 0.0 0.0 0.00 0.00 0.00 47 1014.1
20260508190103 63 243 0.0 0.0 0.00 0.00 0.00 50 1014.4
20260508184622 62 281 0.0 0.0 0.00 0.00 0.00 49 1014.6
20260508183032 63 292 0.0 1.0 0.00 0.00 0.00 47 1014.6
20260508181543 64 263 0.0 8.0 0.00 0.00 0.00 47 1014.8
20260508180007 63 341 0.0 4.0 0.00 0.00 0.00 50 1015.0
20260508174505 62 214 0.0 11.0 0.00 0.00 0.00 49 1015.2
20260508173046 61 271 0.0 9.0 0.00 0.00 0.00 47 1015.3